Location: Cronhütte
(48.9135°N, 9.6869°E)
Time: 09:06:15
(UTC+00:00)

Helios 1A Rocket - Pass Details

Date: 23 May 2024
Orbit: 521 x 543 km, 98.3° (Epoch: 15 June)

Event Time Altitude Azimuth Distance (km) Brightness Sun altitude
Exits shadow 00:07:13 40° 137° (SE) 806 3.3 -19.6°
Maximum altitude 00:08:26 64° 72° (ENE) 599 3.0 -19.5°
Drops below altitude 10° 00:12:16 10° 352° (N) 1,795 6.4 -19.4°
Sets 00:14:23 0° 349° (N) 2,685 7.5 -19.3°
